Weather History for Port Huron, MI

Change the Weather History Date:

Tuesday, February 19, 2013

  Actual Average (KMTC) Record (KMTC)
Temperature  
Mean Temperature 32 °F -  
Max Temperature 42 °F 35 °F 52 °F (1951)
Min Temperature 21 °F 23 °F 0 °F (1966)
Degree Days  
Heating Degree Days 32    
Moisture  
Dew Point 27 °F    
Average Humidity 78    
Maximum Humidity 93    
Minimum Humidity 59    
Precipitation  
Precipitation 0.00 in - - ()
Sea Level Pressure  
Sea Level Pressure 29.58 in    
Wind  
Wind Speed 13 mph (SW)    
Max Wind Speed 22 mph    
Max Gust Speed 36 mph    
Visibility 9 miles    
Events Rain , Snow    
Averages and records for this station are not official NWS values.
T = Trace of Precipitation, MM = Missing Value Source: NWS Daily Summary

Daily Weather History Graph

Daily Weather History Graph

Search for Another Location

Airport:

Trip Planner

Search our weather history database for the weather conditions in past years. The results will help you decide how hot, cold, wet, or windy it might be!

Date:

Astronomy

Feb. 19, 2013 Rise Set
Actual Time 7:21 AM EST 6:07 PM EST
Civil Twilight 6:52 AM EST 6:36 PM EST
Nautical Twilight 6:19 AM EST 7:09 PM EST
Astronomical Twilight 5:46 AM EST 7:41 PM EST
Moon 12:33 PM EST (2/19) 2:56 AM EST (2/19)
Length of Visible Light 11h 43m
Length of Day
10h 45m
Waxing Gibbous, 67% of the Moon is Illuminated
Feb 19
Waxing Gibbous
Feb 25
Full
Mar 4
Last Quarter
Mar 11
New
Mar 19
First Quarter

Hourly Weather History & Observations

Time (EST) Temp. Windchill Dew Point Humidity Pressure Visibility Wind Dir Wind Speed Gust Speed Precip Events Conditions
12:18 AM 41.0 °F 35.8 °F 32.0 °F 70% 29.63 in 10.0 mi SSE 8.1 mph - N/A   Overcast
12:38 AM 41.0 °F 35.2 °F 32.0 °F 70% 29.62 in 10.0 mi SSE 9.2 mph 16.1 mph N/A   Overcast
1:38 AM 42.8 °F 36.6 °F 32.0 °F 66% 29.59 in 10.0 mi South 11.5 mph 18.4 mph N/A Rain Rain
1:58 AM 41.0 °F 33.9 °F 35.6 °F 81% 29.58 in 10.0 mi South 12.7 mph 23.0 mph N/A Rain Light Rain
2:18 AM 41.0 °F 33.5 °F 35.6 °F 81% 29.56 in 10.0 mi South 13.8 mph - N/A Rain Light Rain
2:38 AM 41.0 °F 33.1 °F 37.4 °F 87% 29.55 in 10.0 mi South 15.0 mph 18.4 mph N/A Rain Rain
2:58 AM 41.0 °F 33.1 °F 37.4 °F 87% 29.53 in 10.0 mi South 15.0 mph 24.2 mph N/A   Drizzle
3:18 AM 41.0 °F 33.5 °F 37.4 °F 87% 29.51 in 10.0 mi South 13.8 mph 24.2 mph N/A   Drizzle
3:38 AM 41.0 °F 32.5 °F 37.4 °F 87% 29.50 in 7.0 mi South 17.3 mph 24.2 mph N/A Rain Light Rain
3:58 AM 41.0 °F 32.8 °F 39.2 °F 93% 29.48 in 7.0 mi South 16.1 mph 27.6 mph N/A Rain Light Rain
4:18 AM 41.0 °F 31.9 °F 37.4 °F 87% 29.46 in 7.0 mi South 19.6 mph 32.2 mph N/A Rain Light Rain
4:38 AM 41.0 °F 32.2 °F 37.4 °F 87% 29.45 in 5.0 mi South 18.4 mph 25.3 mph N/A Rain Light Rain
4:58 AM 41.0 °F 31.4 °F 39.2 °F 93% 29.43 in 7.0 mi South 21.9 mph 35.7 mph N/A Rain Light Rain
5:18 AM 41.0 °F 31.6 °F 37.4 °F 87% 29.42 in 10.0 mi South 20.7 mph 28.8 mph N/A Rain Light Rain
5:38 AM 41.0 °F 31.4 °F 39.2 °F 93% 29.42 in 7.0 mi South 21.9 mph 32.2 mph N/A Rain Rain
5:58 AM 41.0 °F 31.6 °F 39.2 °F 93% 29.41 in 5.0 mi South 20.7 mph 31.1 mph N/A   Drizzle
6:18 AM 41.0 °F 31.9 °F 39.2 °F 93% 29.41 in 5.0 mi SSW 19.6 mph 28.8 mph N/A   Drizzle
6:38 AM 41.0 °F 32.5 °F 39.2 °F 93% 29.42 in 5.0 mi SSW 17.3 mph 25.3 mph N/A   Drizzle
6:58 AM 41.0 °F 34.3 °F 37.4 °F 87% 29.45 in 7.0 mi WSW 11.5 mph 20.7 mph N/A   Overcast
7:18 AM 39.2 °F 33.0 °F 33.8 °F 81% 29.46 in 10.0 mi WSW 9.2 mph 17.3 mph N/A   Overcast
7:38 AM 37.4 °F 30.3 °F 33.8 °F 87% 29.48 in 10.0 mi WSW 10.4 mph 16.1 mph N/A   Overcast
7:58 AM 37.4 °F 30.8 °F 33.8 °F 87% 29.49 in 10.0 mi SW 9.2 mph 18.4 mph N/A   Overcast
8:18 AM 37.4 °F 31.4 °F 33.8 °F 87% 29.50 in 7.0 mi WSW 8.1 mph 17.3 mph N/A   Overcast
8:38 AM 37.4 °F 31.4 °F 33.8 °F 87% 29.50 in 7.0 mi SW 8.1 mph - N/A   Overcast
8:58 AM 37.4 °F 30.3 °F 33.8 °F 87% 29.51 in 10.0 mi WSW 10.4 mph 19.6 mph N/A   Overcast
9:18 AM 37.4 °F 29.3 °F 32.0 °F 81% 29.51 in 10.0 mi SW 12.7 mph 20.7 mph N/A   Overcast
9:38 AM 35.6 °F 29.2 °F 32.0 °F 87% 29.52 in 10.0 mi WSW 8.1 mph 26.5 mph N/A   Overcast
9:58 AM 35.6 °F 28.0 °F 30.2 °F 81% 29.53 in 10.0 mi SW 10.4 mph - N/A   Overcast
10:18 AM 35.6 °F 28.0 °F 30.2 °F 81% 29.54 in 10.0 mi SW 10.4 mph 21.9 mph N/A   Overcast
10:38 AM 33.8 °F 25.8 °F 30.2 °F 87% 29.54 in 10.0 mi WSW 10.4 mph 20.7 mph N/A   Overcast
10:58 AM 33.8 °F 24.3 °F 28.4 °F 81% 29.55 in 10.0 mi SW 13.8 mph 24.2 mph N/A   Overcast
11:38 AM 32.0 °F 21.6 °F 26.6 °F 80% 29.56 in 10.0 mi WSW 15.0 mph 24.2 mph N/A   Overcast
11:58 AM 32.0 °F 24.2 °F 24.8 °F 75% 29.57 in 10.0 mi WSW 9.2 mph 21.9 mph N/A   Overcast
12:18 PM 30.2 °F 18.9 °F 23.0 °F 75% 29.58 in 10.0 mi WSW 16.1 mph 25.3 mph N/A   Overcast
12:38 PM 30.2 °F 19.8 °F 23.0 °F 75% 29.58 in 10.0 mi SW 13.8 mph 25.3 mph N/A   Overcast
12:58 PM 30.2 °F 19.3 °F 21.2 °F 69% 29.59 in 10.0 mi WSW 15.0 mph 25.3 mph N/A Snow Light Snow
1:18 PM 30.2 °F 19.3 °F 19.4 °F 64% 29.59 in 10.0 mi WSW 15.0 mph 21.9 mph N/A   Overcast
1:38 PM 30.2 °F 20.2 °F 17.6 °F 60% 29.60 in 10.0 mi WSW 12.7 mph 21.9 mph N/A Snow Light Snow
1:58 PM 28.4 °F 19.1 °F 17.6 °F 64% 29.60 in 10.0 mi WSW 10.4 mph 21.9 mph N/A Snow Light Snow
2:18 PM 28.4 °F 17.0 °F 17.6 °F 64% 29.61 in 10.0 mi WSW 15.0 mph 25.3 mph N/A Snow Light Snow
2:38 PM 28.4 °F 18.0 °F 17.6 °F 64% 29.61 in 10.0 mi WSW 12.7 mph 26.5 mph N/A   Overcast
2:58 PM 28.4 °F 16.6 °F 15.8 °F 59% 29.62 in 10.0 mi WSW 16.1 mph 25.3 mph N/A   Overcast
3:18 PM 26.6 °F 14.7 °F 17.6 °F 69% 29.64 in 4.0 mi WSW 15.0 mph 24.2 mph N/A Snow Light Snow
3:38 PM 26.6 °F 17.5 °F 19.4 °F 74% 29.65 in 1.2 mi WSW 9.2 mph 19.6 mph N/A Snow Light Snow
3:58 PM 26.6 °F 16.8 °F 19.4 °F 74% 29.66 in 2.5 mi SW 10.4 mph 20.7 mph N/A Snow Light Snow
4:18 PM 24.8 °F 14.0 °F 21.2 °F 86% 29.67 in 1.0 mi WSW 11.5 mph 23.0 mph N/A Snow Light Snow
4:58 PM 26.6 °F 16.2 °F 17.6 °F 69% 29.69 in 10.0 mi WSW 11.5 mph 19.6 mph N/A   Overcast
5:38 PM 26.6 °F 16.2 °F 15.8 °F 64% 29.71 in 10.0 mi WSW 11.5 mph 25.3 mph N/A   Overcast
6:18 PM 26.6 °F 14.3 °F 15.8 °F 64% 29.73 in 10.0 mi WSW 16.1 mph 29.9 mph N/A Snow Light Snow
7:18 PM 24.8 °F 14.0 °F 14.0 °F 64% 29.77 in 10.0 mi West 11.5 mph 24.2 mph N/A   Overcast
8:38 PM 24.8 °F 12.4 °F 15.8 °F 69% 29.80 in 10.0 mi WSW 15.0 mph 24.2 mph N/A Snow Light Snow
8:58 PM 23.0 °F 10.6 °F 15.8 °F 74% 29.81 in 7.0 mi WSW 13.8 mph 24.2 mph N/A Snow Light Snow
9:18 PM 23.0 °F 15.8 °F 14.0 °F 68% 29.82 in 10.0 mi West 5.8 mph 24.2 mph N/A   Overcast
9:38 PM 23.0 °F 11.1 °F 14.0 °F 68% 29.82 in 10.0 mi West 12.7 mph 20.7 mph N/A   Overcast
9:58 PM 23.0 °F 11.1 °F 12.2 °F 63% 29.83 in 10.0 mi WSW 12.7 mph 21.9 mph N/A   Overcast
10:18 PM 23.0 °F 13.9 °F 12.2 °F 63% 29.84 in 10.0 mi West 8.1 mph 17.3 mph N/A   Overcast
10:38 PM 21.2 °F 11.7 °F 12.2 °F 68% 29.84 in 10.0 mi West 8.1 mph 23.0 mph N/A   Overcast